Flag for U.S.A. Weather past 2 weeks in Stamford, Connecticut, U.S.A.

Now
68 °F

Partly cloudy.


Feels Like: 68 °F
Forecast: 64 / 74 °F
Wind: No wind

Location: Westchester County Airport

Current Time: Aug 22, 2014 at 10:43:36 PM

Latest Report: Aug 22, 2014 at 9:56 PM


Visibility: 10 mi

Pressure: 30.05 "Hg

Humidity: 82%

Dew point: 62 °F

Location of StamfordLocation

Historic Weather in Stamford — Graph

°F

Stamford temperature yesterday

Maximum temperature yesterday: 79 °F (at 1:56 PM)
Minimum temperature yesterday: 66 °F (at 12:56 AM)
Average temperature yesterday: 71 °F

Past Weeks' High & Low Weather Summary

 TemperatureHumidityPressure
High86 °F (Aug 10, 2:56 PM)100% (Aug 22, 6:03 AM)30.14 "Hg (Aug 22, 6:03 AM)
Low55 °F (Aug 15, 5:56 AM)31% (Aug 10, 2:56 PM)29.64 "Hg (Aug 13, 3:56 PM)
Average70 °F68%29.96 "Hg
* Reported Aug 7 8:56 PM — Aug 22 8:56 PM, Stamford, Weather by CustomWeather, © 2014

Note: Actual official high and low records may vary slightly from our data, if they occured in-between our weather recording intervals... More about our weather records

Advertising

Stamford weather history for previous 24 hours

 ConditionsComfort  
Time TempWeatherWind HumidityBarometerVisibility
8:56 PM
Aug 22
68 °FPassing clouds.5 mph78%30.04 "Hg10 mi
7:56 PM69 °FPartly sunny.6 mph76%30.04 "Hg10 mi
6:56 PM69 °FPartly sunny.6 mph70%30.03 "Hg10 mi
5:56 PM70 °FOvercast.8 mph66%30.03 "Hg10 mi
4:56 PM71 °FPartly sunny.6 mph61%30.01 "Hg10 mi
3:56 PM73 °FBroken clouds.9 mph51%30.01 "Hg10 mi
2:56 PM74 °FScattered clouds.6 mph60%30.01 "Hg10 mi
1:56 PM74 °FPartly sunny.8 mph60%30.03 "Hg10 mi
12:56 PM72 °FPartly sunny.7 mph61%30.03 "Hg10 mi
11:56 AM69 °FBroken clouds.6 mph76%30.04 "Hg10 mi
10:56 AM68 °FBroken clouds.6 mph82%30.06 "Hg10 mi
9:56 AM67 °FMostly cloudy.3 mph87%30.05 "Hg10 mi
8:56 AM68 °FMostly cloudy.6 mph76%30.03 "Hg10 mi
7:56 AM66 °FPartly sunny.6 mph87%30.02 "Hg10 mi
6:56 AM66 °FOvercast.3 mph93%30.02 "Hg8 mi
6:03 AM64 °FFog.5 mph100%30.01 "Hg6 mi
5:56 AM65 °FFog.No wind97%30.00 "Hg6 mi
4:56 AM66 °FMostly cloudy.3 mph93%30.01 "Hg8 mi
3:56 AM67 °FPassing clouds.3 mph90%30.00 "Hg10 mi
2:56 AM66 °FOvercast.5 mph93%30.01 "Hg10 mi
2:03 AM68 °FDrizzle. Mostly cloudy.5 mph88%30.03 "Hg10 mi
1:56 AM68 °FPartly cloudy.6 mph90%30.01 "Hg10 mi
12:56 AM68 °FDrizzle. Overcast.10 mph93%30.00 "Hg8 mi
11:56 PM
Aug 21
68 °FPassing clouds.10 mph93%30.03 "Hg9 mi
10:56 PM68 °FLight rain. Fog.3 mph93%30.04 "Hg5 mi
Weather by CustomWeather, © 2014

See weather overviewHow to use our weather pages